Regional Weather Roundup
Issued by NWS

Home | Current Version | Previous Version | Graphics & Text | Print | Product List | Glossary On
Versions: 1 2 3 4 5 6 7 8 9 10 11 12 13 14 15 16 17 18 19 20 21 22 23 24 25 26 27 28 29 30 31 32 33 34 35 36 37 38 39 40 41 42 43 44 45 46 47 48 49 50
000
ASUS44 KMEG 241800
RWRTN
TENNESSEE HOURLY STATE WEATHER ROUNDUP
NATIONAL WEATHER SERVICE MEMPHIS TN
100 PM CDT SUN MAY 24 2015

TNZ002-004-019-021-049-052-054-088>092-241900-
WEST TENNESSEE

CITY           SKY/WX    TMP DP  RH WIND       PRES   REMARKS
MEMPHIS INTL   PTSUNNY   85  67  54 S18G26    30.07F
NWS MEMPHIS      N/A     82 N/A N/A MISG        N/A
JACKSON        PTSUNNY   84  65  52 S13G21    30.11F
DYERSBURG      MOSUNNY   84  55  37 S14G26    30.08F
PARIS          MOSUNNY   82  64  54 S10       30.13F
LEXINGTON      PTSUNNY   81  64  57 S12       30.13F
$$

TNZ008-025-027-028-033-062-065-066-241900-
NORTH MIDDLE TENNESSEE

CITY           SKY/WX    TMP DP  RH WIND       PRES   REMARKS
NASHVILLE      PTSUNNY   84  61  45 S14G24    30.21F
CLARKSVILLE    MOSUNNY   82  63  52 SE16G23   30.16F
COOKEVILLE     SUNNY     81  61  50 S13       30.26S
CROSSVILLE     SUNNY     75  55  49 SE9G20    30.31F
$$

TNZ061-075-076-078-094-096-097-241900-
SOUTH MIDDLE TENNESSEE

CITY           SKY/WX    TMP DP  RH WIND       PRES   REMARKS
FAYETTEVILLE   MOSUNNY  N/A N/A N/A MISG      30.23F
TULLAHOMA      MOSUNNY   79  59  50 SE12      30.26S
WINCHESTER     MOSUNNY   79  63  57 SE14      30.25F
MCMINNVILLE    MOSUNNY   81  63  54 VRB6      30.26S
COLUMBIA       PTSUNNY   82  66  57 SE13      30.18F
SHELBYVILLE    MOSUNNY   82  64  54 S10       30.24F
$$

TNZ017-018-042-046-047-241900-
NORTHEAST TENNESSEE

CITY           SKY/WX    TMP DP  RH WIND       PRES   REMARKS
TRI CITIES     MOSUNNY   80  47  31 VRB3      30.33F
ELIZABETHTON   CLEAR     79  52  38 E5        30.33F
$$

TNZ012-013-036-069-073-074-241900-
CENTRAL EAST TENNESSEE

CITY           SKY/WX    TMP DP  RH WIND       PRES   REMARKS
KNOXVILLE      MOSUNNY   80  51  36 S9        30.28F
OAK RIDGE      SUNNY     81  53  37 VRB5      30.30F
GATLINBURG       N/A     79  52  38 VRB5      30.29F
$$

TNZ083-085-099-241900-
SOUTHEAST TENNESSEE

CITY           SKY/WX    TMP DP  RH WIND       PRES   REMARKS
CHATTANOOGA    PTSUNNY   80  59  48 SE14G20   30.27F
$$

SKY/WX REPORTED AS FAIR MEANS FEW OR NO CLOUDS BELOW
12 THOUSAND FEET.




USA.gov is the U.S. government's official web portal to all federal, state and local government web resources and services.